Year,Month,Day,Hour,Minute,Value (Times are PST for temperature in C)
2013,04,26,00,00,10.90
2013,04,26,00,01,10.90
2013,04,26,00,02,10.90
2013,04,26,00,03,10.90
2013,04,26,00,04,10.90
2013,04,26,00,05,10.90
2013,04,26,00,06,10.90
2013,04,26,00,07,10.90
2013,04,26,00,08,10.90
2013,04,26,00,09,10.90
2013,04,26,00,10,10.90
2013,04,26,00,11,10.90
2013,04,26,00,12,10.90
2013,04,26,00,13,10.90
2013,04,26,00,14,10.90
2013,04,26,00,15,10.90
2013,04,26,00,16,10.90
2013,04,26,00,17,10.90
2013,04,26,00,18,10.90
2013,04,26,00,19,10.90
2013,04,26,00,20,10.80
2013,04,26,00,21,10.80
2013,04,26,00,22,10.80
2013,04,26,00,23,10.80
2013,04,26,00,24,10.70
2013,04,26,00,25,10.70
2013,04,26,00,26,10.70
2013,04,26,00,27,10.70
2013,04,26,00,28,10.70
2013,04,26,00,29,10.60
2013,04,26,00,30,10.60
2013,04,26,00,31,10.60
2013,04,26,00,32,10.60
2013,04,26,00,33,10.60
2013,04,26,00,34,10.60
2013,04,26,00,35,10.60
2013,04,26,00,36,10.60
2013,04,26,00,37,10.60
2013,04,26,00,38,10.60
2013,04,26,00,39,10.60
2013,04,26,00,40,10.60
2013,04,26,00,41,10.60
2013,04,26,00,42,10.60
2013,04,26,00,43,10.50
2013,04,26,00,44,10.40
2013,04,26,00,45,10.40
2013,04,26,00,46,10.40
2013,04,26,00,47,10.40
2013,04,26,00,48,10.40
2013,04,26,00,49,10.40
2013,04,26,00,50,10.40
2013,04,26,00,51,10.40
2013,04,26,00,52,10.40
2013,04,26,00,53,10.30
2013,04,26,00,54,10.30
2013,04,26,00,55,10.30
2013,04,26,00,56,10.30
2013,04,26,00,57,10.30
2013,04,26,00,58,10.20
2013,04,26,00,59,10.20
2013,04,26,01,00,10.20
2013,04,26,01,01,10.20
2013,04,26,01,02,10.20
2013,04,26,01,03,10.20
2013,04,26,01,04,10.20
2013,04,26,01,05,10.10
2013,04,26,01,06,10.10
2013,04,26,01,07,10.10
2013,04,26,01,08,10.10
2013,04,26,01,09,10.10
2013,04,26,01,10,10.00
2013,04,26,01,11,9.90
2013,04,26,01,12,9.90
2013,04,26,01,13,9.90
2013,04,26,01,14,9.90
2013,04,26,01,15,9.90
2013,04,26,01,16,9.90
2013,04,26,01,17,9.90
2013,04,26,01,18,9.90
2013,04,26,01,19,9.90
2013,04,26,01,20,9.90
2013,04,26,01,21,9.90
2013,04,26,01,22,9.90
2013,04,26,01,23,9.90
2013,04,26,01,24,9.80
2013,04,26,01,25,9.80
2013,04,26,01,26,9.80
2013,04,26,01,27,9.80
2013,04,26,01,28,9.80
2013,04,26,01,29,9.80
2013,04,26,01,30,9.80
2013,04,26,01,31,9.80
2013,04,26,01,32,9.80
2013,04,26,01,33,9.70
2013,04,26,01,34,9.70
2013,04,26,01,35,9.70
2013,04,26,01,36,9.70
2013,04,26,01,37,9.70
2013,04,26,01,38,9.60
2013,04,26,01,39,9.60
2013,04,26,01,40,9.50
2013,04,26,01,41,9.50
2013,04,26,01,42,9.50
2013,04,26,01,43,9.40
2013,04,26,01,44,9.40
2013,04,26,01,45,9.40
2013,04,26,01,46,9.30
2013,04,26,01,47,9.30
2013,04,26,01,48,9.30
2013,04,26,01,49,9.30
2013,04,26,01,50,9.30
2013,04,26,01,51,9.20
2013,04,26,01,52,9.20
2013,04,26,01,53,9.20
2013,04,26,01,54,9.20
2013,04,26,01,55,9.20
2013,04,26,01,56,9.20
2013,04,26,01,57,9.20
2013,04,26,01,58,9.20
2013,04,26,01,59,9.20
2013,04,26,02,00,9.20
2013,04,26,02,01,9.10
2013,04,26,02,02,9.10
2013,04,26,02,03,9.10
2013,04,26,02,04,9.10
2013,04,26,02,05,9.10
2013,04,26,02,06,9.00
2013,04,26,02,07,9.00
2013,04,26,02,08,9.00
2013,04,26,02,09,9.00
2013,04,26,02,10,8.90
2013,04,26,02,11,8.90
2013,04,26,02,12,8.90
2013,04,26,02,13,8.90
2013,04,26,02,14,8.90
2013,04,26,02,15,8.80
2013,04,26,02,16,8.80
2013,04,26,02,17,8.80
2013,04,26,02,18,8.80
2013,04,26,02,19,8.80
2013,04,26,02,20,8.80
2013,04,26,02,21,8.80
2013,04,26,02,22,8.70
2013,04,26,02,23,8.70
2013,04,26,02,24,8.70
2013,04,26,02,25,8.70
2013,04,26,02,26,8.70
2013,04,26,02,27,8.70
2013,04,26,02,28,8.70
2013,04,26,02,29,8.70
2013,04,26,02,30,8.70
2013,04,26,02,31,8.70
2013,04,26,02,32,8.70
2013,04,26,02,33,8.70
2013,04,26,02,34,8.70
2013,04,26,02,35,8.70
2013,04,26,02,36,8.70
2013,04,26,02,37,8.70
2013,04,26,02,38,8.70
2013,04,26,02,39,8.70
2013,04,26,02,40,8.70
2013,04,26,02,41,8.70
2013,04,26,02,42,8.70
2013,04,26,02,43,8.70
2013,04,26,02,44,8.70
2013,04,26,02,45,8.70
2013,04,26,02,46,8.70
2013,04,26,02,47,8.70
2013,04,26,02,48,8.70
2013,04,26,02,49,8.70
2013,04,26,02,50,8.70
2013,04,26,02,51,8.70
2013,04,26,02,52,8.70
2013,04,26,02,53,8.70
2013,04,26,02,54,8.60
2013,04,26,02,55,8.60
2013,04,26,02,56,8.60
2013,04,26,02,57,8.60
2013,04,26,02,58,8.50
2013,04,26,02,59,8.50
2013,04,26,03,00,8.50
2013,04,26,03,01,8.50
2013,04,26,03,02,8.50
2013,04,26,03,03,8.40
2013,04,26,03,04,8.40
2013,04,26,03,05,8.40
2013,04,26,03,06,8.40
2013,04,26,03,07,8.30
2013,04,26,03,08,8.30
2013,04,26,03,09,8.30
2013,04,26,03,10,8.30
2013,04,26,03,11,8.30
2013,04,26,03,12,8.30
2013,04,26,03,13,8.30
2013,04,26,03,14,8.30
2013,04,26,03,15,8.30
2013,04,26,03,16,8.30
2013,04,26,03,17,8.40
2013,04,26,03,18,8.40
2013,04,26,03,19,8.40
2013,04,26,03,20,8.40
2013,04,26,03,21,8.40
2013,04,26,03,22,8.40
2013,04,26,03,23,8.40
2013,04,26,03,24,8.40
2013,04,26,03,25,8.40
2013,04,26,03,26,8.40
2013,04,26,03,27,8.40
2013,04,26,03,28,8.40
2013,04,26,03,29,8.40
2013,04,26,03,30,8.40
2013,04,26,03,31,8.40
2013,04,26,03,32,8.40
2013,04,26,03,33,8.30
2013,04,26,03,34,8.30
2013,04,26,03,35,8.30
2013,04,26,03,36,8.30
2013,04,26,03,37,8.30
2013,04,26,03,38,8.30
2013,04,26,03,39,8.20
2013,04,26,03,40,8.20
2013,04,26,03,41,8.20
2013,04,26,03,42,8.20
2013,04,26,03,43,8.20
2013,04,26,03,44,8.20
2013,04,26,03,45,8.20
2013,04,26,03,46,8.10
2013,04,26,03,47,8.00
2013,04,26,03,48,7.90
2013,04,26,03,49,7.80
2013,04,26,03,50,7.70
2013,04,26,03,51,7.60
2013,04,26,03,52,7.50
2013,04,26,03,53,7.40
2013,04,26,03,54,7.30
2013,04,26,03,55,7.30
2013,04,26,03,56,7.20
2013,04,26,03,57,7.20
2013,04,26,03,58,7.10
2013,04,26,03,59,7.00
2013,04,26,04,00,7.00
2013,04,26,04,01,6.90
2013,04,26,04,02,6.80
2013,04,26,04,03,6.80
2013,04,26,04,04,6.70
2013,04,26,04,05,6.60
2013,04,26,04,06,6.60
2013,04,26,04,07,6.60
2013,04,26,04,08,6.50
2013,04,26,04,09,6.40
2013,04,26,04,10,6.40
2013,04,26,04,11,6.40
2013,04,26,04,12,6.40
2013,04,26,04,13,6.30
2013,04,26,04,14,6.30
2013,04,26,04,15,6.30
2013,04,26,04,16,6.30
2013,04,26,04,17,6.20
2013,04,26,04,18,6.20
2013,04,26,04,19,6.20
2013,04,26,04,20,6.20
2013,04,26,04,21,6.30
2013,04,26,04,22,6.30
2013,04,26,04,23,6.20
2013,04,26,04,24,6.20
2013,04,26,04,25,6.20
2013,04,26,04,26,6.20
2013,04,26,04,27,6.20
2013,04,26,04,28,6.20
2013,04,26,04,29,6.10
2013,04,26,04,30,6.10
2013,04,26,04,31,6.00
2013,04,26,04,32,6.00
2013,04,26,04,33,6.00
2013,04,26,04,34,5.90
2013,04,26,04,35,5.90
2013,04,26,04,36,5.90
2013,04,26,04,37,5.80
2013,04,26,04,38,5.80
2013,04,26,04,39,5.70
2013,04,26,04,40,5.70
2013,04,26,04,41,5.70
2013,04,26,04,42,5.70
2013,04,26,04,43,5.70
2013,04,26,04,44,5.70
2013,04,26,04,45,5.60
2013,04,26,04,46,5.60
2013,04,26,04,47,5.60
2013,04,26,04,48,5.60
2013,04,26,04,49,5.60
2013,04,26,04,50,5.60
2013,04,26,04,51,5.50
2013,04,26,04,52,5.50
2013,04,26,04,53,5.50
2013,04,26,04,54,5.50
2013,04,26,04,55,5.50
2013,04,26,04,56,5.50
2013,04,26,04,57,5.50
2013,04,26,04,58,5.50
2013,04,26,04,59,5.50
2013,04,26,05,00,5.50
2013,04,26,05,01,5.50
2013,04,26,05,02,5.50
2013,04,26,05,03,5.50
2013,04,26,05,04,5.50
2013,04,26,05,05,5.50
2013,04,26,05,06,5.40
2013,04,26,05,07,5.40
2013,04,26,05,08,5.40
2013,04,26,05,09,5.40
2013,04,26,05,10,5.40
2013,04,26,05,11,5.40
2013,04,26,05,12,5.30
2013,04,26,05,13,5.30
2013,04,26,05,14,5.30
2013,04,26,05,15,5.30
2013,04,26,05,16,5.30
2013,04,26,05,17,5.30
2013,04,26,05,18,5.30
2013,04,26,05,19,5.30
2013,04,26,05,20,5.30
2013,04,26,05,21,5.30
2013,04,26,05,22,5.30
2013,04,26,05,23,5.30
2013,04,26,05,24,5.30
2013,04,26,05,25,5.30
2013,04,26,05,26,5.30
2013,04,26,05,27,5.30
2013,04,26,05,28,5.30
2013,04,26,05,29,5.30
2013,04,26,05,30,5.30
2013,04,26,05,31,5.20
2013,04,26,05,32,5.20
2013,04,26,05,33,5.20
2013,04,26,05,34,5.10
2013,04,26,05,35,5.10
2013,04,26,05,36,5.10
2013,04,26,05,37,5.10
2013,04,26,05,38,5.10
2013,04,26,05,39,5.10
2013,04,26,05,40,5.10
2013,04,26,05,41,5.10
2013,04,26,05,42,5.00
2013,04,26,05,43,4.90
2013,04,26,05,44,4.90
2013,04,26,05,45,4.90
2013,04,26,05,46,4.90
2013,04,26,05,47,4.90
2013,04,26,05,48,4.90
2013,04,26,05,49,4.90
2013,04,26,05,50,4.90
2013,04,26,05,51,4.90
2013,04,26,05,52,4.90
2013,04,26,05,53,4.90
2013,04,26,05,54,4.90
2013,04,26,05,55,4.90
2013,04,26,05,56,4.80
2013,04,26,05,57,4.80
2013,04,26,05,58,4.80
2013,04,26,05,59,4.80
2013,04,26,06,00,4.80
2013,04,26,06,01,4.80
2013,04,26,06,02,4.80
2013,04,26,06,03,4.80
2013,04,26,06,04,4.70
2013,04,26,06,05,4.70
2013,04,26,06,06,4.70
2013,04,26,06,07,4.70
2013,04,26,06,08,4.70
2013,04,26,06,09,4.70
2013,04,26,06,10,4.70
2013,04,26,06,11,4.60
2013,04,26,06,12,4.60
2013,04,26,06,13,4.60
2013,04,26,06,14,4.60
2013,04,26,06,15,4.60
2013,04,26,06,16,4.60
2013,04,26,06,17,4.60
2013,04,26,06,18,4.60
2013,04,26,06,19,4.60
2013,04,26,06,20,4.60
2013,04,26,06,21,4.60
2013,04,26,06,22,4.60
2013,04,26,06,23,4.60
2013,04,26,06,24,4.60
2013,04,26,06,25,4.60
2013,04,26,06,26,4.60
2013,04,26,06,27,4.60
2013,04,26,06,28,4.60
2013,04,26,06,29,4.60
2013,04,26,06,30,4.50
2013,04,26,06,31,4.50
2013,04,26,06,32,4.50
2013,04,26,06,33,4.50
2013,04,26,06,34,4.60
2013,04,26,06,35,4.60
2013,04,26,06,36,4.60
2013,04,26,06,37,4.60
2013,04,26,06,38,4.60
2013,04,26,06,39,4.60
2013,04,26,06,40,4.60
2013,04,26,06,41,4.60
2013,04,26,06,42,4.60
2013,04,26,06,43,4.60
2013,04,26,06,44,4.60
2013,04,26,06,45,4.60
2013,04,26,06,46,4.60
2013,04,26,06,47,4.70
2013,04,26,06,48,4.70
2013,04,26,06,49,4.70
2013,04,26,06,50,4.70
2013,04,26,06,51,4.70
2013,04,26,06,52,4.70
2013,04,26,06,53,4.70
2013,04,26,06,54,4.80
2013,04,26,06,55,4.80
2013,04,26,06,56,4.80
2013,04,26,06,57,4.80
2013,04,26,06,58,4.80
2013,04,26,06,59,4.90
2013,04,26,07,00,4.90
2013,04,26,07,01,4.90
2013,04,26,07,02,4.90
2013,04,26,07,03,5.00
2013,04,26,07,04,5.10
2013,04,26,07,05,5.10
2013,04,26,07,06,5.10
2013,04,26,07,07,5.10
2013,04,26,07,08,5.20
2013,04,26,07,09,5.30
2013,04,26,07,10,5.30
2013,04,26,07,11,5.30
2013,04,26,07,12,5.30
2013,04,26,07,13,5.40
2013,04,26,07,14,5.40
2013,04,26,07,15,5.50
2013,04,26,07,16,5.50
2013,04,26,07,17,5.60
2013,04,26,07,18,5.60
2013,04,26,07,19,5.70
2013,04,26,07,20,5.70
2013,04,26,07,21,5.80
2013,04,26,07,22,5.90
2013,04,26,07,23,6.00
2013,04,26,07,24,6.10
2013,04,26,07,25,6.20
2013,04,26,07,26,6.30
2013,04,26,07,27,6.40
2013,04,26,07,28,6.50
2013,04,26,07,29,6.70
2013,04,26,07,30,6.80
2013,04,26,07,31,6.90
2013,04,26,07,32,7.10
2013,04,26,07,33,7.20
2013,04,26,07,34,7.30
2013,04,26,07,35,7.40
2013,04,26,07,36,7.50
2013,04,26,07,37,7.60
2013,04,26,07,38,7.80
2013,04,26,07,39,7.90
2013,04,26,07,40,8.00
2013,04,26,07,41,8.10
2013,04,26,07,42,8.20
2013,04,26,07,43,8.20
2013,04,26,07,44,8.20
2013,04,26,07,45,8.30
2013,04,26,07,46,8.30
2013,04,26,07,47,8.30
2013,04,26,07,48,8.20
2013,04,26,07,49,8.20
2013,04,26,07,50,8.30
2013,04,26,07,51,8.50
2013,04,26,07,52,8.60
2013,04,26,07,53,8.80
2013,04,26,07,54,8.90
2013,04,26,07,55,9.00
2013,04,26,07,56,9.10
2013,04,26,07,57,9.20
2013,04,26,07,58,9.30
2013,04,26,07,59,9.30
2013,04,26,08,00,9.40
2013,04,26,08,01,9.50
2013,04,26,08,02,9.50
2013,04,26,08,03,9.60
2013,04,26,08,04,9.60
2013,04,26,08,05,9.70
2013,04,26,08,06,9.70
2013,04,26,08,07,9.80
2013,04,26,08,08,9.80
2013,04,26,08,09,9.80
2013,04,26,08,10,9.80
2013,04,26,08,11,9.90
2013,04,26,08,12,9.90
2013,04,26,08,13,10.10
2013,04,26,08,14,10.10
2013,04,26,08,15,10.00
2013,04,26,08,16,9.90
2013,04,26,08,17,9.90
2013,04,26,08,18,9.90
2013,04,26,08,19,9.90
2013,04,26,08,20,9.90
2013,04,26,08,21,9.90
2013,04,26,08,22,9.90
2013,04,26,08,23,9.90
2013,04,26,08,24,9.90
2013,04,26,08,25,10.00
2013,04,26,08,26,10.10
2013,04,26,08,27,10.00
2013,04,26,08,28,9.90
2013,04,26,08,29,10.00
2013,04,26,08,30,10.10
2013,04,26,08,31,10.10
2013,04,26,08,32,10.10
2013,04,26,08,33,10.20
2013,04,26,08,34,10.20
2013,04,26,08,35,10.20
2013,04,26,08,36,10.20
2013,04,26,08,37,10.20
2013,04,26,08,38,10.20
2013,04,26,08,39,10.10
2013,04,26,08,40,10.20
2013,04,26,08,41,10.20
2013,04,26,08,42,10.20
2013,04,26,08,43,10.30
2013,04,26,08,44,10.20
2013,04,26,08,45,10.20
2013,04,26,08,46,10.10
2013,04,26,08,47,10.10
2013,04,26,08,48,10.10
2013,04,26,08,49,10.10
2013,04,26,08,50,10.00
2013,04,26,08,51,9.90
2013,04,26,08,52,9.90
2013,04,26,08,53,10.00
2013,04,26,08,54,10.10
2013,04,26,08,55,10.10
2013,04,26,08,56,10.20
2013,04,26,08,57,10.10
2013,04,26,08,58,10.10
2013,04,26,08,59,10.10
2013,04,26,09,00,10.10
2013,04,26,09,01,10.10
2013,04,26,09,02,10.20
2013,04,26,09,03,10.20
2013,04,26,09,04,10.10
2013,04,26,09,05,10.10
2013,04,26,09,06,10.10
2013,04,26,09,07,10.10
2013,04,26,09,08,10.20
2013,04,26,09,09,10.40
2013,04,26,09,10,10.40
2013,04,26,09,11,10.40
2013,04,26,09,12,10.40
2013,04,26,09,13,10.40
2013,04,26,09,14,10.40
2013,04,26,09,15,10.40
2013,04,26,09,16,10.40
2013,04,26,09,17,10.30
2013,04,26,09,18,10.40
2013,04,26,09,19,10.40
2013,04,26,09,20,10.50
2013,04,26,09,21,10.60
2013,04,26,09,22,10.70
2013,04,26,09,23,10.80
2013,04,26,09,24,10.80
2013,04,26,09,25,10.90
2013,04,26,09,26,10.90
2013,04,26,09,27,11.10
2013,04,26,09,28,11.10
2013,04,26,09,29,11.10
2013,04,26,09,30,11.20
2013,04,26,09,31,11.30
2013,04,26,09,32,11.30
2013,04,26,09,33,11.30
2013,04,26,09,34,11.40
2013,04,26,09,35,11.40
2013,04,26,09,36,11.50
2013,04,26,09,37,11.60
2013,04,26,09,38,11.60
2013,04,26,09,39,11.40
2013,04,26,09,40,11.40
2013,04,26,09,41,11.30
2013,04,26,09,42,11.30
2013,04,26,09,43,11.20
2013,04,26,09,44,11.30
2013,04,26,09,45,11.30
2013,04,26,09,46,11.30
2013,04,26,09,47,11.40
2013,04,26,09,48,11.50
2013,04,26,09,49,11.60
2013,04,26,09,50,11.70
2013,04,26,09,51,11.60
2013,04,26,09,52,11.60
2013,04,26,09,53,11.60
2013,04,26,09,54,11.60
2013,04,26,09,55,11.80
2013,04,26,09,56,11.80
2013,04,26,09,57,11.70
2013,04,26,09,58,11.60
2013,04,26,09,59,11.50
2013,04,26,10,00,11.40
2013,04,26,10,01,11.40
2013,04,26,10,02,11.60
2013,04,26,10,03,11.60
2013,04,26,10,04,11.50
2013,04,26,10,05,11.40
2013,04,26,10,06,11.30
2013,04,26,10,07,11.40
2013,04,26,10,08,11.40
2013,04,26,10,09,11.40
2013,04,26,10,10,11.40
2013,04,26,10,11,11.40
2013,04,26,10,12,11.40
2013,04,26,10,13,11.40
2013,04,26,10,14,11.40
2013,04,26,10,15,11.30
2013,04,26,10,16,11.30
2013,04,26,10,17,11.30
2013,04,26,10,18,11.20
2013,04,26,10,19,11.20
2013,04,26,10,20,11.20
2013,04,26,10,21,11.10
2013,04,26,10,22,11.20
2013,04,26,10,23,11.20
2013,04,26,10,24,11.10
2013,04,26,10,25,11.00
2013,04,26,10,26,10.90
2013,04,26,10,27,10.80
2013,04,26,10,28,10.70
2013,04,26,10,29,10.60
2013,04,26,10,30,10.60
2013,04,26,10,31,10.60
2013,04,26,10,32,10.60
2013,04,26,10,33,10.50
2013,04,26,10,34,10.40
2013,04,26,10,35,10.30
2013,04,26,10,36,10.30
2013,04,26,10,37,10.20
2013,04,26,10,38,10.20
2013,04,26,10,39,10.20
2013,04,26,10,40,10.20
2013,04,26,10,41,10.20
2013,04,26,10,42,10.20
2013,04,26,10,43,10.20
2013,04,26,10,44,10.20
2013,04,26,10,45,10.20
2013,04,26,10,46,10.20
2013,04,26,10,47,10.20
2013,04,26,10,48,10.20
2013,04,26,10,49,10.20
2013,04,26,10,50,10.30
2013,04,26,10,51,10.20
2013,04,26,10,52,10.10
2013,04,26,10,53,10.10
2013,04,26,10,54,10.10
2013,04,26,10,55,10.00
2013,04,26,10,56,9.90
2013,04,26,10,57,9.90
2013,04,26,10,58,9.90
2013,04,26,10,59,9.90
2013,04,26,11,00,9.90
2013,04,26,11,01,9.90
2013,04,26,11,02,9.90
2013,04,26,11,03,9.90
2013,04,26,11,04,9.90
2013,04,26,11,05,9.90
2013,04,26,11,06,9.90
2013,04,26,11,07,9.80
2013,04,26,11,08,9.80
2013,04,26,11,09,9.90
2013,04,26,11,10,9.90
2013,04,26,11,11,9.90
2013,04,26,11,12,9.80
2013,04,26,11,13,9.90
2013,04,26,11,14,9.90
2013,04,26,11,15,9.80
2013,04,26,11,16,9.90
2013,04,26,11,17,9.90
2013,04,26,11,18,10.00
2013,04,26,11,19,10.10
2013,04,26,11,20,10.20
2013,04,26,11,21,10.20
2013,04,26,11,22,10.30
2013,04,26,11,23,10.30
2013,04,26,11,24,10.30
2013,04,26,11,25,10.30
2013,04,26,11,26,10.30
2013,04,26,11,27,10.30
2013,04,26,11,28,10.30
2013,04,26,11,29,10.30
2013,04,26,11,30,10.20
2013,04,26,11,31,10.20
2013,04,26,11,32,10.30
2013,04,26,11,33,10.30
2013,04,26,11,34,10.40
2013,04,26,11,35,10.50
2013,04,26,11,36,10.70
2013,04,26,11,37,10.70
2013,04,26,11,38,10.60
2013,04,26,11,39,10.60
2013,04,26,11,40,10.60
2013,04,26,11,41,10.60
2013,04,26,11,42,10.60
2013,04,26,11,43,10.70
2013,04,26,11,44,10.80
2013,04,26,11,45,10.80
2013,04,26,11,46,10.80
2013,04,26,11,47,10.60
2013,04,26,11,48,10.50
2013,04,26,11,49,10.40
2013,04,26,11,50,10.30
2013,04,26,11,51,10.30
2013,04,26,11,52,10.30
2013,04,26,11,53,10.40
2013,04,26,11,54,10.60
2013,04,26,11,55,10.70
2013,04,26,11,56,10.60
2013,04,26,11,57,10.60
2013,04,26,11,58,10.60
2013,04,26,11,59,10.70
2013,04,26,12,00,10.90
2013,04,26,12,01,10.90
2013,04,26,12,02,10.90
2013,04,26,12,03,10.90
2013,04,26,12,04,10.80
2013,04,26,12,05,10.90
2013,04,26,12,06,10.90
2013,04,26,12,07,10.90
2013,04,26,12,08,10.90
2013,04,26,12,09,10.90
2013,04,26,12,10,10.90
2013,04,26,12,11,10.90
2013,04,26,12,12,10.90
2013,04,26,12,13,10.90
2013,04,26,12,14,11.00
2013,04,26,12,15,11.00
2013,04,26,12,16,10.90
2013,04,26,12,17,10.90
2013,04,26,12,18,10.90
2013,04,26,12,19,10.90
2013,04,26,12,20,10.90
2013,04,26,12,21,10.90
2013,04,26,12,22,10.80
2013,04,26,12,23,10.80
2013,04,26,12,24,10.70
2013,04,26,12,25,10.80
2013,04,26,12,26,10.90
2013,04,26,12,27,11.00
2013,04,26,12,28,10.90
2013,04,26,12,29,10.80
2013,04,26,12,30,10.80
2013,04,26,12,31,10.70
2013,04,26,12,32,10.70
2013,04,26,12,33,10.60
2013,04,26,12,34,10.60
2013,04,26,12,35,10.60
2013,04,26,12,36,10.70
2013,04,26,12,37,10.90
2013,04,26,12,38,10.80
2013,04,26,12,39,10.80
2013,04,26,12,40,10.80
2013,04,26,12,41,10.80
2013,04,26,12,42,10.80
2013,04,26,12,43,10.70
2013,04,26,12,44,10.80
2013,04,26,12,45,10.80
2013,04,26,12,46,10.80
2013,04,26,12,47,10.80
2013,04,26,12,48,10.90
2013,04,26,12,49,10.90
2013,04,26,12,50,10.90
2013,04,26,12,51,10.90
2013,04,26,12,52,11.00
2013,04,26,12,53,11.10
2013,04,26,12,54,11.20
2013,04,26,12,55,11.20
2013,04,26,12,56,11.30
2013,04,26,12,57,11.20
2013,04,26,12,58,11.20
2013,04,26,12,59,11.10
2013,04,26,13,00,11.10
2013,04,26,13,01,11.10
2013,04,26,13,02,11.10
2013,04,26,13,03,11.10
2013,04,26,13,04,11.10
2013,04,26,13,05,11.10
2013,04,26,13,06,11.20
2013,04,26,13,07,11.20
2013,04,26,13,08,11.20
2013,04,26,13,09,11.20
2013,04,26,13,10,11.10
2013,04,26,13,11,11.10
2013,04,26,13,12,11.10
2013,04,26,13,13,11.10
2013,04,26,13,14,11.10
2013,04,26,13,15,11.10
2013,04,26,13,16,11.10
2013,04,26,13,17,11.20
2013,04,26,13,18,11.30
2013,04,26,13,19,11.40
2013,04,26,13,20,11.40
2013,04,26,13,21,11.60
2013,04,26,13,22,11.50
2013,04,26,13,23,11.40
2013,04,26,13,24,11.40
2013,04,26,13,25,11.30
2013,04,26,13,26,11.20
2013,04,26,13,27,11.10
2013,04,26,13,28,11.10
2013,04,26,13,29,11.00
2013,04,26,13,30,11.00
2013,04,26,13,31,11.10
2013,04,26,13,32,11.10
2013,04,26,13,33,11.10
2013,04,26,13,34,11.20
2013,04,26,13,35,11.20
2013,04,26,13,36,11.20
2013,04,26,13,37,11.10
2013,04,26,13,38,11.10
2013,04,26,13,39,11.10
2013,04,26,13,40,11.10
2013,04,26,13,41,11.00
2013,04,26,13,42,10.90
2013,04,26,13,43,10.90
2013,04,26,13,44,10.90
2013,04,26,13,45,11.00
2013,04,26,13,46,11.10
2013,04,26,13,47,11.10
2013,04,26,13,48,11.10
2013,04,26,13,49,11.10
2013,04,26,13,50,11.10
2013,04,26,13,51,11.10
2013,04,26,13,52,11.20
2013,04,26,13,53,11.20
2013,04,26,13,54,11.30
2013,04,26,13,55,11.30
2013,04,26,13,56,11.40
2013,04,26,13,57,11.40
2013,04,26,13,58,11.40
2013,04,26,13,59,11.40
2013,04,26,14,00,11.30
2013,04,26,14,01,11.20
2013,04,26,14,02,11.10
2013,04,26,14,03,11.00
2013,04,26,14,04,10.90
2013,04,26,14,05,11.00
2013,04,26,14,06,11.10
2013,04,26,14,07,11.10
2013,04,26,14,08,11.10
2013,04,26,14,09,11.10
2013,04,26,14,10,11.10
2013,04,26,14,11,11.20
2013,04,26,14,12,11.20
2013,04,26,14,13,11.30
2013,04,26,14,14,11.30
2013,04,26,14,15,11.40
2013,04,26,14,16,11.50
2013,04,26,14,17,11.60
2013,04,26,14,18,11.60
2013,04,26,14,19,11.60
2013,04,26,14,20,11.60
2013,04,26,14,21,11.70
2013,04,26,14,22,11.80
2013,04,26,14,23,11.80
2013,04,26,14,24,11.80
2013,04,26,14,25,11.80
2013,04,26,14,26,12.00
2013,04,26,14,27,12.10
2013,04,26,14,28,12.20
2013,04,26,14,29,12.30
2013,04,26,14,30,12.30
2013,04,26,14,31,12.30
2013,04,26,14,32,12.30
2013,04,26,14,33,12.30
2013,04,26,14,34,12.30
2013,04,26,14,35,12.40
2013,04,26,14,36,12.50
2013,04,26,14,37,12.50
2013,04,26,14,38,12.60
2013,04,26,14,39,12.60
2013,04,26,14,40,12.60
2013,04,26,14,41,12.70
2013,04,26,14,42,12.70
2013,04,26,14,43,12.70
2013,04,26,14,44,12.70
2013,04,26,14,45,12.70
2013,04,26,14,46,12.80
2013,04,26,14,47,13.00
2013,04,26,14,48,13.10
2013,04,26,14,49,13.20
2013,04,26,14,50,13.30
2013,04,26,14,51,13.30
2013,04,26,14,52,13.30
2013,04,26,14,53,13.30
2013,04,26,14,54,13.30
2013,04,26,14,55,13.30
2013,04,26,14,56,13.40
2013,04,26,14,57,13.50
2013,04,26,14,58,13.60
2013,04,26,14,59,13.70
2013,04,26,15,00,13.70
2013,04,26,15,01,13.70
2013,04,26,15,02,13.70
2013,04,26,15,03,13.60
2013,04,26,15,04,13.60
2013,04,26,15,05,13.40
2013,04,26,15,06,13.20
2013,04,26,15,07,13.10
2013,04,26,15,08,13.10
2013,04,26,15,09,13.10
2013,04,26,15,10,13.00
2013,04,26,15,11,12.90
2013,04,26,15,12,12.90
2013,04,26,15,13,12.90
2013,04,26,15,14,12.90
2013,04,26,15,15,13.00
2013,04,26,15,16,13.10
2013,04,26,15,17,13.00
2013,04,26,15,18,12.90
2013,04,26,15,19,12.80
2013,04,26,15,20,12.80
2013,04,26,15,21,12.60
2013,04,26,15,22,12.40
2013,04,26,15,23,12.20
2013,04,26,15,24,12.10
2013,04,26,15,25,12.00
2013,04,26,15,26,12.00
2013,04,26,15,27,11.90
2013,04,26,15,28,12.00
2013,04,26,15,29,12.00
2013,04,26,15,30,11.90
2013,04,26,15,31,12.00
2013,04,26,15,32,12.00
2013,04,26,15,33,12.10
2013,04,26,15,34,12.20
2013,04,26,15,35,12.30
2013,04,26,15,36,12.30
2013,04,26,15,37,12.30
2013,04,26,15,38,12.30
2013,04,26,15,39,12.20
2013,04,26,15,40,12.10
2013,04,26,15,41,12.10
2013,04,26,15,42,12.00
2013,04,26,15,43,11.90
2013,04,26,15,44,11.90
2013,04,26,15,45,11.80
2013,04,26,15,46,11.90
2013,04,26,15,47,11.90
2013,04,26,15,48,11.90
2013,04,26,15,49,12.00
2013,04,26,15,50,12.10
2013,04,26,15,51,12.10
2013,04,26,15,52,12.20
2013,04,26,15,53,12.20
2013,04,26,15,54,12.20
2013,04,26,15,55,12.30
2013,04,26,15,56,12.20
2013,04,26,15,57,12.20
2013,04,26,15,58,12.30
2013,04,26,15,59,12.30
2013,04,26,16,00,12.30
2013,04,26,16,01,12.30
2013,04,26,16,02,12.30
2013,04,26,16,03,12.30
2013,04,26,16,04,12.20
2013,04,26,16,05,12.20
2013,04,26,16,06,12.20
2013,04,26,16,07,12.20
2013,04,26,16,08,12.20
2013,04,26,16,09,12.30
2013,04,26,16,10,12.30
2013,04,26,16,11,12.40
2013,04,26,16,12,12.40
2013,04,26,16,13,12.50
2013,04,26,16,14,12.60
2013,04,26,16,15,12.70
2013,04,26,16,16,12.70
2013,04,26,16,17,12.70
2013,04,26,16,18,12.60
2013,04,26,16,19,12.50
2013,04,26,16,20,12.40
2013,04,26,16,21,12.40
2013,04,26,16,22,12.40
2013,04,26,16,23,12.40
2013,04,26,16,24,12.40
2013,04,26,16,25,12.40
2013,04,26,16,26,12.40
2013,04,26,16,27,12.40
2013,04,26,16,28,12.40
2013,04,26,16,29,12.40
2013,04,26,16,30,12.40
2013,04,26,16,31,12.40
2013,04,26,16,32,12.40
2013,04,26,16,33,12.30
2013,04,26,16,34,12.30
2013,04,26,16,35,12.30
2013,04,26,16,36,12.40
2013,04,26,16,37,12.50
2013,04,26,16,38,12.60
2013,04,26,16,39,12.60
2013,04,26,16,40,12.50
2013,04,26,16,41,12.40
2013,04,26,16,42,12.40
2013,04,26,16,43,12.40
2013,04,26,16,44,12.40
2013,04,26,16,45,12.40
2013,04,26,16,46,12.30
2013,04,26,16,47,12.40
2013,04,26,16,48,12.40
2013,04,26,16,49,12.40
2013,04,26,16,50,12.40
2013,04,26,16,51,12.50
2013,04,26,16,52,12.50
2013,04,26,16,53,12.50
2013,04,26,16,54,12.40
2013,04,26,16,55,12.50
2013,04,26,16,56,12.50
2013,04,26,16,57,12.60
2013,04,26,16,58,12.60
2013,04,26,16,59,12.60
2013,04,26,17,00,12.60
2013,04,26,17,01,12.60
2013,04,26,17,02,12.60
2013,04,26,17,03,12.60
2013,04,26,17,04,12.60
2013,04,26,17,05,12.70
2013,04,26,17,06,12.80
2013,04,26,17,07,12.90
2013,04,26,17,08,13.00
2013,04,26,17,09,13.00
2013,04,26,17,10,13.10
2013,04,26,17,11,13.20
2013,04,26,17,12,13.30
2013,04,26,17,13,13.30
2013,04,26,17,14,13.40
2013,04,26,17,15,13.40
2013,04,26,17,16,13.50
2013,04,26,17,17,13.50
2013,04,26,17,18,13.50
2013,04,26,17,19,13.50
2013,04,26,17,20,13.60
2013,04,26,17,21,13.70
2013,04,26,17,22,13.70
2013,04,26,17,23,13.70
2013,04,26,17,24,13.70
2013,04,26,17,25,13.60
2013,04,26,17,26,13.50
2013,04,26,17,27,13.40
2013,04,26,17,28,13.40
2013,04,26,17,29,13.50
2013,04,26,17,30,13.60
2013,04,26,17,31,13.70
2013,04,26,17,32,13.80
2013,04,26,17,33,13.80
2013,04,26,17,34,13.90
2013,04,26,17,35,14.00
2013,04,26,17,36,14.10
2013,04,26,17,37,14.30
2013,04,26,17,38,14.40
2013,04,26,17,39,14.50